Location: Unspecified
(50.7693°N, 0.0000°E)
Time: 08:58:39
(UTC+00:00)

Transit 4A - Pass Details

Date: 28 June 2019
Orbit: 862 x 982 km, 66.8° (Epoch: 16 July)

Event Time Altitude Azimuth Distance (km) Brightness Sun altitude
Rises 11:47:48 0° 306° (NW) 3,693 10.8 62.3°
Reaches altitude 10° 11:51:12 10° 324° (NW) 2,747 10.2 62.4°
Maximum altitude 11:55:46 20° 9° (N) 2,119 9.7 62.5°
Drops below altitude 10° 12:00:18 10° 55° (NE) 2,727 10.3 62.5°
Sets 12:03:39 0° 72° (ENE) 3,658 10.9 62.5°
